Tracking 20041 objects as of 22-Nov-2019
Live streaming from Space Station
objects crossing your sky now

ISO

Track ISO now!
ISO is classified as:


NORAD ID: 23715
Int'l Code: 1995-062A
Perigee: 460.0 km
Apogee: 70,166.0 km
Inclination: 2.6 °
Period: 1,411.6 minutes
Semi major axis: 41683 km
RCS: 3.9811 m2 (large)
Launch date: November 17, 1995
Source: European Space Agency (ESA)
Launch site: FRENCH GUIANA (FRGUI)
aabbcc
Your satellite tracking list
Your tracking list is empty




NASA's NSSDC Master Catalog

Two Line Element Set (TLE):
1 23715U 95062A   19325.19431696 -.00000093  00000-0  21022-3 0  9992
2 23715   2.6042 330.5507 8361246 330.0905   1.2592  1.02011404 89185
Source of the keplerian elements: AFSPC